Wind_Speed
3 4 3 3 3 3 2 3 3 3 3 3 3 4 4 4 4 5 5 5 5 5 5 6 6 6 7 7 7 7 7 6 6 6 6 6 6 5 5 5 5 4 4 4 4 5 5 5 6
3 4 4 3 3 3 3 4 4 4 4 4 4 4 4 4 5 5 6 6 6 6 6 6 6 7 7 8 7 7 7 7 7 7 7 7 7 8 7 6 6 6 6 6 6 6 6 6 6
4 4 4 4 4 4 5 5 5 5 5 5 6 5 5 6 6 7 7 7 7 7 6 6 7 8 7 7 7 8 8 8 7 7 7 7 7 7 8 7 7 7 7 7 8 7 6 6 6
5 5 4 4 4 5 6 6 6 6 6 6 7 6 6 7 7 7 7 7 7 7 7 8 8 8 8 7 8 8 8 8 8 8 8 7 6 6 7 8 8 7 7 7 8 7 7 7 6
6 5 5 6 5 6 6 7 7 7 7 8 8 7 8 7 8 8 8 7 8 8 8 8 8 7 8 8 8 8 8 8 8 8 8 8 7 7 8 8 8 8 8 8 8 7 8 8 8
6 6 6 6 7 8 8 8 9 9 9 9 9 9 8 8 8 8 8 8 8 8 8 8 8 7 8 7 8 9 9 8 8 8 8 7 8 8 8 8 9 8 9 9 9 9 8 7 7
7 7 7 8 8 9 9 9 9 10 10 11 10 10 9 9 9 9 8 9 9 9 8 8 7 7 7 7 8 8 8 8 8 8 7 7 7 7 8 8 9 9 10 10 10 10 9 8 8
8 8 8 9 10 10 10 10 10 11 11 11 11 11 10 10 10 10 9 10 9 9 9 8 8 7 8 8 8 8 8 8 8 8 7 8 8 7 8 9 9 9 9 10 11 10 10 9 9
9 9 9 10 11 11 11 11 12 12 12 12 12 12 11 11 11 11 11 11 11 10 10 9 9 8 8 9 9 9 9 8 9 8 8 7 8 9 9 9 10 10 10 10 10 10 10 10 10
9 10 9 10 11 11 11 11 12 12 12 13 12 12 12 12 11 12 11 11 11 11 11 10 9 9 9 8 9 9 9 9 10 9 8 8 8 9 10 10 10 10 10 10 10 11 11 11 11
10 10 10 10 11 11 11 11 12 12 12 12 12 12 12 12 12 12 12 12 12 12 11 11 10 10 10 10 10 10 10 9 10 9 9 9 9 9 10 10 10 10 10 11 11 11 11 12 12
10 10 11 11 11 12 12 12 12 12 12 12 12 11 11 12 12 11 11 11 12 12 12 11 10 10 10 10 11 11 11 10 10 10 9 9 9 9 9 10 11 10 10 11 11 12 12 12 13
11 11 12 12 12 12 12 12 12 12 12 12 12 12 12 11 11 11 11 11 12 12 12 12 11 10 10 10 10 11 11 11 10 10 10 10 10 10 11 11 11 11 11 12 13 13 13 13 13
11 11 12 12 12 12 12 12 12 11 12 12 12 12 12 11 11 11 11 11 11 11 11 12 12 11 11 11 11 11 11 12 11 10 10 11 11 11 12 11 12 12 13 12 13 13 12 12 12
12 12 12 12 13 13 13 12 12 11 11 11 12 11 11 10 11 11 11 11 11 11 11 11 11 12 12 12 12 13 12 11 11 11 10 11 11 12 12 12 12 12 13 13 13 12 13 12 13
12 12 12 12 13 13 13 12 11 12 12 12 11 11 10 10 10 11 10 10 10 10 10 11 12 12 12 12 12 12 12 12 12 12 12 12 12 12 12 13 13 13 13 13 13 13 13 13 13
11 12 12 12 13 13 13 12 12 12 13 12 12 11 11 10 10 11 11 11 11 11 11 12 12 13 13 13 13 13 13 13 13 13 13 13 13 13 13 14 14 14 14 14 14 14 13 13 13
11 11 12 13 13 13 13 13 13 13 13 13 12 12 11 11 11 11 11 12 12 12 12 12 13 13 13 14 14 14 14 14 14 14 14 13 14 14 14 15 15 14 14 14 14 14 13 14 14
11 11 12 13 13 13 13 13 14 14 14 14 13 13 11 11 11 12 12 12 13 13 13 13 13 14 14 14 15 15 15 15 15 14 14 14 14 14 14 14 14 15 15 14 14 14 14 14 14
12 11 11 12 13 12 13 13 14 14 14 14 14 14 13 12 13 13 13 13 13 14 14 14 14 14 14 15 15 15 15 15 15 15 15 14 14 14 14 15 15 15 15 15 15 15 15 15 15
12 12 11 12 12 12 12 12 13 14 14 14 14 14 14 13 13 13 13 14 14 15 15 15 16 15 15 16 16 16 16 16 16 16 16 16 16 16 16 16 16 17 17 17 16 16 16 16 16
11 11 11 11 12 11 12 13 12 13 14 15 15 15 15 13 14 14 14 15 15 16 17 16 16 16 17 17 18 17 17 17 17 18 18 18 18 19 18 18 18 18 18 18 17 17 16 16 16
11 11 11 11 11 11 11 13 13 14 15 15 16 16 16 15 15 15 16 16 16 16 17 17 17 17 18 18 18 18 18 18 18 19 19 19 20 20 20 19 19 19 18 18 17 17 17 16 16
11 11 11 10 10 11 12 13 15 15 15 15 16 16 16 16 16 16 17 17 17 17 17 17 18 18 19 19 19 19 19 19 19 19 20 20 21 21 20 19 19 19 19 18 18 18 18 17 16
11 11 10 10 11 13 13 15 16 15 16 16 16 16 17 17 18 18 18 18 18 18 18 18 18 19 19 19 19 20 20 20 20 20 20 20 20 21 20 19 19 19 19 19 19 19 18 18 18
11 11 10 11 12 14 15 17 16 16 16 16 17 17 17 17 18 18 19 19 18 18 19 19 19 19 19 19 20 20 20 20 20 20 20 20 21 20 20 19 19 19 19 19 19 19 18 19 19
10 11 11 11 12 13 14 17 17 16 16 17 17 17 18 18 18 19 19 19 19 19 19 20 20 19 19 20 21 21 21 21 21 21 21 21 21 21 21 20 20 19 19 19 20 19 19 20 20
12 12 11 12 12 12 13 16 17 16 17 17 18 17 18 19 19 19 19 20 20 20 20 20 20 20 20 21 22 22 21 21 21 22 21 21 22 22 22 21 21 20 20 20 21 21 21 21 21
12 13 13 13 13 12 13 15 16 16 18 18 18 18 18 18 19 19 19 19 20 20 20 20 20 21 21 21 21 21 21 21 21 21 22 22 22 22 22 22 21 21 21 21 22 22 22 22 22
14 14 14 14 14 14 15 16 16 17 19 19 18 18 18 19 19 19 20 20 20 20 20 20 20 21 21 21 21 21 21 22 21 22 22 22 23 23 22 22 22 22 22 22 22 22 23 24 23
Wind_Direction
162 169 172 185 192 200 205 235 237 229 224 224 230 236 239 242 248 254 261 259 255 255 257 263 267 272 272 270 272 271 272 275 275 276 273 277 267 254 253 253 246 239 240 238 244 243 236 227 230
188 185 193 204 221 221 234 246 248 248 248 243 244 249 250 251 259 263 265 265 265 268 268 274 278 279 280 277 276 275 277 279 278 278 277 275 274 258 250 252 250 247 246 243 246 241 242 241 238
207 206 212 223 235 241 240 250 251 252 256 253 253 257 260 264 265 265 269 271 268 268 269 277 281 282 284 280 278 279 279 281 283 281 280 284 281 258 250 250 257 253 255 257 257 250 247 250 247
225 224 231 236 241 245 247 251 254 254 256 258 259 263 265 268 268 267 267 269 270 270 273 280 285 284 283 278 278 279 282 281 282 282 281 285 281 262 255 251 257 259 264 267 264 257 251 256 256
236 238 243 245 249 250 255 257 257 256 256 260 260 265 267 268 268 267 268 268 270 274 277 282 287 283 281 279 275 276 276 280 282 284 282 279 276 269 262 261 264 263 266 267 266 264 257 258 260
243 245 250 251 250 253 257 257 258 258 257 259 261 264 268 268 269 269 269 269 270 277 282 285 286 285 282 279 277 280 278 279 281 284 283 281 278 273 267 260 261 263 268 271 266 263 259 256 257
251 251 255 255 256 259 259 260 260 259 259 260 262 264 267 267 267 268 270 272 274 280 284 287 287 292 287 283 281 280 282 283 283 282 282 282 280 275 270 267 267 268 268 268 269 265 263 261 259
256 255 258 258 259 260 260 261 259 260 262 264 265 266 265 265 265 268 270 272 273 278 283 286 289 290 288 284 282 287 286 292 289 284 278 279 279 277 275 275 275 276 273 269 268 266 265 263 261
257 259 259 260 262 261 259 259 260 262 264 265 265 267 265 264 265 268 270 271 273 275 278 284 286 286 289 290 290 290 291 294 296 288 283 285 280 274 272 274 276 278 277 273 268 265 265 265 263
254 260 262 265 266 262 259 258 260 262 264 266 265 264 263 264 266 267 267 269 273 274 275 279 282 285 284 288 288 287 287 287 293 295 288 291 283 277 276 277 278 277 275 272 268 265 265 265 263
258 260 262 264 265 262 259 257 258 260 263 267 266 265 265 264 266 267 268 269 271 274 274 276 278 282 282 285 288 288 287 287 291 294 292 294 290 283 281 278 277 275 274 271 270 268 268 267 266
258 261 262 264 264 261 259 258 258 259 262 265 267 269 267 265 266 268 269 270 271 273 275 276 277 279 280 282 284 284 285 285 286 286 288 288 285 283 285 282 279 276 275 273 273 272 271 270 269
256 259 261 263 263 261 260 259 258 257 261 262 263 267 268 267 267 268 270 273 273 273 276 278 274 277 279 280 279 281 283 284 281 284 283 283 284 282 283 283 281 280 279 278 277 273 272 272 274
255 257 260 263 262 262 260 256 254 258 259 261 262 267 268 269 269 270 272 274 274 274 278 279 277 277 279 279 278 279 279 281 280 280 282 282 284 286 288 285 284 284 281 281 283 279 276 275 274
252 255 259 262 263 262 260 254 253 256 260 263 263 266 267 271 273 273 274 274 277 277 279 282 281 279 280 279 279 277 277 277 283 283 283 281 282 285 286 287 284 283 284 282 282 281 279 277 276
253 257 260 261 263 263 262 256 255 256 257 258 262 268 270 274 275 276 277 278 280 281 283 285 286 283 282 280 282 281 278 279 280 283 283 283 284 284 285 286 284 283 283 282 281 280 280 278 275
258 262 265 264 262 262 263 259 257 256 257 256 259 266 268 268 271 275 277 278 280 281 282 285 286 286 282 281 282 282 280 281 280 282 283 284 285 284 284 285 286 286 283 281 279 277 277 276 275
256 259 262 265 265 262 261 259 255 253 254 257 261 263 268 269 268 272 274 275 277 278 280 283 286 286 281 280 280 281 281 281 280 282 282 285 286 283 282 284 284 283 282 280 278 277 277 275 274
256 257 260 262 263 262 260 258 256 252 257 258 262 264 266 269 267 269 272 274 276 278 279 281 282 284 283 280 280 281 281 280 279 282 283 283 285 286 282 282 282 282 282 282 279 277 278 277 274
255 256 259 263 261 261 261 258 256 257 261 260 262 264 265 266 270 271 272 274 275 277 280 282 283 284 282 281 283 283 281 281 279 280 285 283 281 283 285 281 280 280 280 280 278 276 276 277 275
251 256 256 260 262 261 261 261 259 258 260 262 263 264 266 267 270 272 272 275 277 278 280 282 283 284 284 284 285 282 279 280 280 282 283 282 282 283 282 281 280 280 280 280 279 278 277 276 274
253 256 261 263 262 265 265 266 263 264 263 262 262 263 267 264 271 275 277 278 277 277 279 281 283 285 286 286 286 283 283 281 280 281 281 282 281 280 279 280 283 281 279 278 278 277 277 275 273
255 258 262 263 264 266 265 267 264 266 265 264 263 264 268 268 273 275 278 279 278 278 280 281 283 285 287 286 286 284 284 282 281 281 281 281 281 281 280 279 280 280 279 276 275 276 275 275 273
256 258 258 261 267 271 269 268 265 268 270 270 269 268 269 270 274 277 279 279 279 280 281 281 283 285 286 287 286 284 283 283 282 282 281 281 282 282 280 277 277 278 277 274 273 273 273 274 273
256 257 258 263 267 270 270 269 268 270 272 272 271 270 271 273 276 278 279 280 282 282 281 281 282 284 285 286 285 285 285 284 283 281 280 281 282 281 278 276 275 276 276 275 274 273 273 273 272
254 252 252 252 256 265 269 271 272 273 274 275 274 273 273 275 276 278 280 280 281 281 280 282 284 284 284 285 285 285 286 286 285 284 282 281 282 280 276 275 273 274 275 275 275 273 273 273 273
254 249 250 255 257 262 266 270 273 274 278 278 275 274 274 275 278 280 280 280 280 282 282 283 284 284 284 284 284 285 286 285 283 283 282 283 281 280 277 275 275 274 272 274 276 274 272 272 272
255 252 251 257 262 265 266 270 273 277 281 281 279 278 278 277 280 281 281 280 280 281 282 283 285 285 285 284 284 285 285 284 283 283 282 282 280 279 277 276 275 273 273 274 275 275 273 273 274
257 252 255 259 264 264 265 266 275 281 282 281 281 280 280 280 280 281 281 282 281 282 282 283 284 285 285 284 284 284 285 284 284 286 284 282 279 277 277 275 275 275 275 276 276 275 274 274 275
262 258 257 260 263 265 268 271 275 280 280 280 281 280 279 279 280 281 282 281 281 282 283 283 286 286 285 284 284 284 284 285 286 285 284 281 280 278 277 276 276 276 276 277 277 276 276 275 275
Height
5859 5859 5860 5862 5863 5863 5863 5863 5863 5864 5864 5865 5865 5865 5866 5867 5868 5870 5868 5867 5868 5868 5868 5868 5868 5867 5867 5867 5867 5867 5867 5867 5867 5867 5866 5866 5865 5865 5865 5866 5866 5866 5867 5867 5867 5868 5868 5868 5869
5858 5859 5861 5861 5862 5862 5863 5862 5863 5864 5864 5864 5865 5865 5866 5866 5867 5867 5866 5867 5867 5867 5867 5867 5866 5866 5865 5865 5865 5865 5865 5866 5865 5865 5865 5864 5862 5862 5864 5865 5865 5866 5866 5867 5867 5868 5868 5868 5868
5858 5859 5860 5861 5861 5861 5862 5862 5862 5863 5863 5864 5864 5865 5866 5866 5866 5866 5866 5866 5866 5866 5866 5865 5865 5864 5864 5863 5864 5864 5864 5864 5864 5864 5863 5862 5860 5859 5862 5864 5864 5865 5866 5866 5867 5867 5867 5867 5868
5858 5859 5860 5860 5860 5860 5860 5861 5861 5862 5863 5863 5864 5864 5864 5865 5865 5865 5865 5865 5865 5865 5865 5864 5863 5863 5862 5862 5862 5862 5863 5863 5863 5863 5862 5862 5861 5860 5862 5863 5864 5864 5865 5866 5866 5866 5867 5867 5867
5857 5858 5859 5859 5859 5859 5860 5860 5861 5861 5862 5862 5862 5863 5863 5864 5864 5864 5864 5864 5864 5864 5863 5863 5862 5861 5861 5861 5861 5861 5862 5862 5862 5862 5862 5861 5861 5861 5862 5862 5863 5864 5864 5865 5865 5865 5866 5866 5866
5856 5856 5857 5857 5858 5858 5858 5859 5859 5860 5860 5861 5861 5862 5862 5862 5862 5863 5863 5863 5863 5863 5863 5862 5861 5860 5860 5860 5860 5860 5861 5861 5861 5861 5861 5860 5860 5860 5861 5861 5862 5863 5863 5863 5864 5864 5864 5865 5865
5855 5855 5855 5856 5856 5857 5857 5857 5858 5858 5859 5859 5860 5860 5860 5861 5861 5861 5862 5862 5862 5862 5861 5861 5860 5859 5858 5859 5859 5859 5860 5860 5860 5860 5860 5860 5859 5859 5860 5860 5861 5861 5861 5862 5862 5862 5863 5863 5864
5853 5854 5854 5854 5855 5855 5856 5856 5856 5856 5857 5858 5858 5858 5859 5859 5859 5860 5860 5860 5860 5860 5860 5860 5859 5859 5858 5858 5858 5858 5858 5858 5858 5858 5859 5859 5858 5859 5859 5859 5859 5859 5860 5860 5860 5860 5861 5861 5862
5851 5853 5852 5853 5853 5853 5854 5854 5854 5855 5855 5855 5856 5857 5857 5857 5858 5858 5858 5859 5859 5859 5859 5859 5858 5858 5858 5857 5857 5857 5857 5857 5857 5857 5857 5857 5857 5858 5858 5858 5858 5858 5858 5858 5858 5858 5859 5859 5860
5849 5850 5851 5851 5851 5851 5852 5852 5853 5853 5853 5854 5854 5854 5855 5855 5856 5856 5856 5857 5857 5857 5857 5857 5857 5857 5857 5856 5856 5856 5856 5856 5856 5856 5856 5856 5856 5856 5856 5856 5856 5856 5856 5856 5856 5857 5857 5857 5858
5847 5848 5848 5848 5849 5849 5849 5850 5850 5851 5851 5852 5852 5852 5853 5853 5854 5854 5854 5854 5855 5855 5855 5855 5855 5855 5855 5855 5855 5855 5855 5855 5855 5855 5855 5855 5855 5855 5855 5855 5855 5854 5854 5854 5854 5854 5854 5855 5855
5844 5845 5845 5846 5846 5847 5847 5848 5848 5849 5849 5849 5850 5850 5851 5851 5851 5852 5852 5852 5853 5853 5853 5853 5853 5853 5853 5853 5853 5853 5853 5853 5853 5853 5853 5853 5853 5853 5853 5853 5853 5853 5853 5852 5852 5852 5852 5853 5853
5842 5842 5843 5843 5844 5844 5845 5845 5846 5846 5847 5847 5847 5848 5849 5849 5849 5849 5850 5850 5850 5851 5851 5851 5851 5851 5851 5851 5851 5851 5851 5851 5851 5851 5851 5851 5851 5852 5851 5851 5851 5851 5851 5850 5850 5850 5850 5850 5850
5839 5839 5840 5841 5841 5841 5842 5843 5844 5844 5845 5845 5846 5846 5847 5847 5847 5847 5848 5848 5848 5849 5849 5849 5849 5849 5849 5849 5849 5849 5849 5849 5849 5849 5849 5849 5849 5849 5849 5849 5849 5849 5848 5848 5848 5848 5848 5848 5848
5836 5837 5837 5838 5838 5839 5839 5840 5841 5842 5843 5843 5844 5844 5845 5845 5845 5845 5846 5846 5846 5846 5846 5846 5846 5846 5847 5847 5846 5847 5847 5847 5847 5847 5847 5847 5847 5847 5847 5847 5846 5846 5846 5846 5846 5845 5845 5845 5845
5833 5833 5834 5835 5835 5836 5838 5838 5839 5839 5840 5841 5841 5842 5842 5843 5843 5843 5844 5844 5844 5844 5844 5844 5844 5844 5844 5844 5844 5844 5844 5845 5845 5845 5844 5844 5845 5845 5845 5844 5844 5844 5844 5843 5843 5843 5843 5843 5843
5830 5831 5831 5832 5832 5833 5834 5835 5836 5837 5837 5838 5838 5839 5840 5840 5841 5841 5841 5842 5842 5842 5842 5842 5842 5842 5842 5842 5841 5841 5842 5842 5842 5842 5841 5841 5841 5842 5842 5841 5841 5841 5841 5841 5840 5840 5840 5840 5840
5828 5828 5829 5829 5830 5830 5831 5832 5833 5833 5834 5835 5836 5836 5837 5838 5838 5838 5839 5839 5839 5840 5840 5840 5840 5839 5839 5839 5839 5839 5839 5839 5839 5839 5839 5839 5838 5838 5838 5838 5838 5838 5838 5838 5838 5837 5837 5837 5837
5825 5825 5826 5827 5827 5827 5828 5829 5829 5830 5831 5833 5833 5834 5834 5835 5835 5836 5836 5836 5837 5837 5837 5837 5837 5837 5836 5836 5836 5836 5836 5836 5836 5835 5835 5835 5835 5835 5835 5835 5835 5835 5835 5835 5834 5835 5834 5835 5835
5822 5823 5823 5824 5824 5824 5825 5826 5827 5828 5829 5830 5830 5831 5831 5831 5832 5833 5833 5834 5834 5834 5834 5834 5834 5834 5833 5833 5833 5832 5832 5832 5832 5832 5832 5832 5832 5832 5832 5832 5832 5832 5831 5831 5831 5831 5831 5831 5831
5819 5820 5821 5821 5821 5822 5822 5823 5824 5825 5826 5827 5827 5828 5829 5829 5830 5830 5830 5831 5831 5831 5831 5831 5830 5830 5830 5829 5829 5829 5829 5829 5829 5829 5829 5828 5828 5828 5828 5828 5828 5828 5827 5827 5827 5827 5827 5827 5827
5817 5818 5818 5818 5819 5819 5820 5820 5822 5822 5823 5824 5824 5825 5826 5826 5827 5827 5827 5827 5827 5827 5827 5828 5827 5827 5826 5826 5826 5825 5825 5825 5825 5825 5825 5824 5824 5823 5823 5823 5823 5823 5822 5822 5822 5822 5822 5822 5822
5814 5815 5816 5816 5816 5817 5817 5818 5819 5819 5820 5821 5821 5822 5823 5823 5824 5824 5824 5824 5824 5824 5824 5824 5824 5823 5823 5822 5822 5821 5821 5820 5820 5820 5820 5819 5819 5818 5818 5818 5818 5818 5818 5818 5818 5818 5818 5818 5818
5812 5813 5813 5813 5813 5814 5815 5815 5816 5815 5817 5818 5818 5819 5819 5820 5820 5820 5820 5820 5820 5820 5820 5820 5820 5819 5818 5818 5817 5817 5816 5816 5815 5815 5814 5814 5814 5813 5813 5813 5813 5813 5813 5813 5813 5813 5814 5814 5814
5809 5810 5810 5810 5810 5811 5813 5812 5813 5813 5814 5814 5815 5816 5816 5816 5817 5817 5817 5817 5816 5816 5816 5816 5815 5815 5814 5814 5813 5812 5812 5811 5810 5810 5809 5809 5808 5808 5808 5807 5807 5807 5808 5808 5808 5809 5809 5809 5809
5806 5807 5808 5808 5809 5810 5810 5809 5811 5811 5811 5811 5812 5812 5812 5813 5813 5813 5812 5812 5812 5812 5811 5811 5811 5810 5810 5809 5809 5808 5807 5806 5805 5805 5804 5804 5803 5803 5803 5802 5802 5803 5803 5803 5803 5804 5804 5804 5804
5803 5803 5805 5806 5806 5806 5807 5807 5807 5808 5808 5808 5808 5808 5809 5808 5809 5808 5808 5808 5808 5807 5807 5807 5806 5806 5805 5804 5804 5803 5802 5801 5801 5800 5799 5798 5798 5798 5797 5797 5797 5798 5798 5798 5798 5798 5799 5799 5799
5801 5801 5802 5803 5803 5803 5804 5804 5804 5804 5804 5804 5804 5804 5804 5804 5804 5804 5803 5803 5803 5803 5802 5802 5801 5801 5800 5799 5798 5798 5797 5796 5795 5795 5794 5793 5793 5792 5792 5792 5792 5793 5793 5793 5793 5793 5793 5793 5793
5798 5799 5799 5799 5800 5800 5801 5803 5801 5801 5800 5800 5800 5800 5800 5800 5800 5799 5799 5799 5798 5798 5798 5797 5797 5796 5795 5794 5793 5792 5791 5791 5790 5789 5788 5788 5787 5787 5787 5787 5787 5787 5788 5788 5788 5787 5787 5787 5787
5794 5795 5795 5796 5796 5796 5797 5800 5797 5797 5796 5796 5796 5796 5795 5795 5795 5794 5794 5794 5794 5793 5793 5792 5792 5791 5790 5789 5788 5787 5786 5785 5784 5783 5783 5782 5781 5781 5781 5781 5781 5781 5782 5782 5782 5781 5781 5781 5781